Zurück zum Katalog

COSMOS 1317

LostMilitärHEO
NORAD 12933·PAYLOAD·🇷🇺 Russia

Gestartet Oct 31, 1981 von Plesetsk Cosmodrome

Loading…

Nächste Überflüge (nächste 24 Stunden)

TLE

VeraltetSource: Space-Track

Epoche: Nov 6, 2025, 11:49 UTC

1 12933U 81108A   25310.49239420  .00000119  00000-0  00000-0 0  9991
2 12933  71.5073 119.7468 4749935 327.7124 272.1738  2.00242621321809

Verfolge COSMOS 1317 in Echtzeit mit AllMySat

Download on the App Store